Regional Weather Roundup
Issued by NWS

Home | Current Version | Previous Version | Text Only | Print | Product List | Glossary Off
Versions: 1 2 3 4 5 6 7 8 9 10 11 12 13 14 15 16 17 18 19 20 21 22 23 24 25 26 27 28 29 30 31 32 33 34 35 36 37 38 39 40 41 42 43 44 45 46 47 48 49 50

000
ASUS43 KMKX 120759
RWRWI

WISCONSIN REGIONAL WEATHER ROUNDUP
NATIONAL WEATHER SERVICE MILWAUKEE/SULLIVAN WI
200 AM CST TUE DEC 12 2017

NOTE: "FAIR" INDICATES FEW OR NO CLOUDS BELOW 12,000 FEET WITH NO
SIGNIFICANT WEATHER AND/OR OBSTRUCTIONS TO VISIBILITY.

WIZ001-002-006>008-014>016-023>028-120900-
NORTHWEST WISCONSIN

CITY           SKY/WX    TMP DP  RH WIND       PRES   REMARKS
SUPERIOR ARPT  PTCLDY     7   1  75 W7        30.21S WCI  -5
ASHLAND        CLOUDY    13   3  64 NW14      30.15R WCI  -2
HAYWARD        CLOUDY    10   2  69 NW9       30.14R WCI  -3
SIREN          PTCLDY     9   2  75 NW6       30.20S WCI  -1
CUMBERLAND     CLEAR     10   1  67 NW18      30.14R WCI  -8
RICE LAKE      CLEAR     11   4  74 CALM      30.17R
CHETEK         CLOUDY    12   6  76 NW5       30.15R WCI   4
LADYSMITH      LGT SNOW  14   7  75 NW12      30.11S WCI   0
EAU CLAIRE     NOT AVBL
MENOMONIE      PTCLDY    13   5  70 NW8       30.18R WCI   2
NEW RICHMOND   PTCLDY    11   5  77 NW14      30.19S WCI  -5
OSCEOLA        CLEAR     11   5  77 NW9       30.25R WCI  -1
$$

WIZ003>005-009-010-017-018-120900-
NORTH CENTRAL WISCONSIN

CITY           SKY/WX    TMP DP  RH WIND       PRES   REMARKS
MANITOWISH WTR CLOUDY    11   5  79 NW10G18   29.99S WCI  -3
ARBOR VITAE    FLURRIES  13   8  81 NW9       29.98S WCI   1
WOODRUFF       FLURRIES  13   8  81 NW9       29.98S WCI   1
RHINELANDER    CLOUDY    12   5  73 NW8G20    29.98S WCI   0
EAGLE RIVER    CLOUDY    11   4  72 NW12      29.96S WCI  -3
LAND O LAKES   LGT SNOW  10   5  82 NW8G16    29.97S WCI  -2
PHILLIPS       CLOUDY    10   4  74 NW9       30.04S WCI  -2
TOMAHAWK       CLOUDY    12   5  71 NW10G17   30.02R WCI  -1
MEDFORD        CLOUDY    12   2  66 N14G21    30.03S WCI  -4
MERRILL        CLOUDY    14   3  61 N14G25    30.02S WCI   0
$$

WIZ029-030-035-036-043>047-120900-
CENTRAL WISCONSIN

CITY           SKY/WX    TMP DP  RH WIND       PRES   REMARKS
WAUSAU         CLOUDY    15   3  59 NW12G30   30.02R WCI   2
MOSINEE        CLOUDY    16   9  73 NW17G23   30.03S WCI   0
MARSHFIELD     PTCLDY    12   3  67 NW16      30.05R WCI  -5
STEVENS POINT  CLOUDY    15   2  57 N14G23    30.04R WCI   0
WAUPACA        CLOUDY    21   8  56 NW13G22   30.03R WCI   8
WAUTOMA        NOT AVBL
WISC RAPIDS    PTCLDY    15   5  64 N13G22    30.08R WCI   1
CAMP DOUGLAS   CLOUDY    16   6  63 NW15G26   30.09R WCI   2
$$

WIZ011>013-019>022-031-037>040-048>050-120900-
NORTHEAST WISCONSIN

CITY           SKY/WX    TMP DP  RH WIND       PRES   REMARKS
ANTIGO         CLOUDY    13   6  76 N13G24    29.97R WCI  -2
SHAWANO        CLEAR     19   7  58 NW10G20   30.00R WCI   8
OCONTO         CLOUDY    16   7  67 NW8       29.99R WCI   5
STURGEON BAY   PTCLDY    16   4  59 NW28G33   29.96R WCI  -4
GREEN BAY      PTCLDY    18   7  62 NW16      29.99S WCI   3
MANITOWOC      CLOUDY    18   6  59 N20G26    29.98R WCI   2
APPLETON       CLOUDY    19   5  53 N16G22    29.98R WCI   5
CLINTONVILLE   NOT AVBL
OSHKOSH        CLOUDY    20   8  60 NW16      30.00R WCI   6
$$

WIZ032>034-041-042-053>061-120900-
SOUTHWEST WISCONSIN

CITY           SKY/WX    TMP DP  RH WIND       PRES   REMARKS
LA CROSSE      MOCLDY    18   8  65 NW18G29   30.16R WCI   2
SPARTA         CLOUDY    17   9  71 NW13G22   30.13R WCI   4
VIROQUA        CLEAR     16   9  76 N14G20    30.08R WCI   1
BOSCOBEL       CLEAR     19   8  62 N8G17     30.14R WCI   9
PRAIRIE DU CHI PTCLDY    21  10  63 NW13G20   30.14R WCI   8
PLATTEVILLE    CLEAR     20  11  69 NW17      30.08R WCI   5
$$

WIZ056-057-062-063-064-067-068-120900-
SOUTH CENTRAL WISCONSIN

CITY           SKY/WX    TMP DP  RH WIND       PRES   REMARKS
REEDSBURG      CLOUDY    18   8  64 NW15G24   30.07R WCI   4
BARABOO/DELLS  CLOUDY    18   9  68 NW15      30.05R WCI   4
LONE ROCK      NOT AVBL
MINERAL POINT  CLEAR     21  12  68 NW16G26   30.06R WCI   7
MADISON        CLOUDY    19   9  65 NW12G25   30.04R WCI   7
MIDDLETON      CLEAR     21  10  64 NW20G28   30.04R WCI   5
WATERTOWN      MOCLDY    19  10  67 NW15G21   30.00R WCI   5
MONROE         CLEAR     21  10  63 N9        30.02R WCI  11
JANESVILLE     CLEAR     23  10  58 N15G25    30.02R WCI  10
$$

WIZ051-052-058>065-066-070>072-120900-
SOUTHEAST WISCONSIN

CITY           SKY/WX    TMP DP  RH WIND       PRES   REMARKS
MILWAUKEE      PTCLDY    23  10  57 N13G26    29.97R WCI  11
WAUKESHA       CLOUDY    19   9  63 NW20G25   29.98R WCI   4
MILWAUKEE/TIMM PTCLDY    21   9  58 N20G26    29.98R WCI   6
RACINE         PTCLDY    22  10  60 NW14G31   29.98R WCI   9
BURLINGTON     PTCLDY    32  28  85 NW15G22   29.99R WCI  22
KENOSHA        CLOUDY    24  10  55 NW16G30   29.97R WCI  11
FOND DU LAC    CLOUDY    21   8  57 NW15G26   30.00R WCI   8
SHEBOYGAN      PTCLDY    18   7  62 NW16G23   29.97R WCI   3
WEST BEND      CLOUDY    21  12  68 N13       29.97R WCI   9
JUNEAU         CLOUDY    19   9  66 NW13G20   30.01R WCI   5
$$

LSZ147-162-120900-
LAKE SUPERIOR

STATION/POSITION TIME  TEMP    WIND        PRES    WAVE
                       AIR SEA DIR/SP/G            HT/PER
                 (UTC) (F)     (DEG/KT/KT) (MB)    (FT/S)
DEVILS ISLAND    0700   14     310/ 16/ 21 1022.2R
SAXON HARBOR     0740   18                 1019.6S
$$

LMZ867-665-643>646-120900-
LAKE MICHIGAN

STATION/POSITION TIME  TEMP    WIND        PRES    WAVE
                       AIR SEA DIR/SP/G            HT/PER
                 (UTC) (F)     (DEG/KT/KT) (MB)    (FT/S)
NORTHPORT PIER   0740   20     320/ 32/ 39 1013.5R
KEWAUNEE LAKESHO 0730   17     340/ 15/ 22 1013.9R
SHEBOYGAN LAKESH 0700   21     330/ 24/ 28 1015.2R
PORT WASHINGTON  0740   21     330/  7/ 14 1016.3R
MILWAUKEE LAKESH 0730   23     330/ 16/ 22   N/A
KENOSHA   LAKESH 0700   25     340/ 25/ 32 1013.9
$$

TC  - TEMPERATURE IN CELSIUS
VSB - VISIBILITY IN STATUTE MILES
WCI - WIND CHILL INDEX
HX  - HEAT INDEX





USA.gov is the U.S. government's official web portal to all federal, state and local government web resources and services.